Flag for Canada Weather past 2 weeks in Calgary, Alberta, Canada

Now
55 °F

Passing clouds.


Feels Like: 51 °F
Forecast: 53 / 69 °F
Wind: 16 mph from West

Location: Calgary International

Current Time: Jul 25, 2014 at 1:05:43 AM

Latest Report: Jul 25, 2014 at 12:00 AM


Visibility: 15 mi

Pressure: 29.73 "Hg

Humidity: 44%

Dew point: 34 °F

Location of CalgaryLocation

Historic Weather in Calgary — Graph

°F

Calgary temperature yesterday

Maximum temperature yesterday: 70 °F (at 12:00 PM)
Minimum temperature yesterday: 54 °F (at 5:00 AM)
Average temperature yesterday: 61 °F

Past Weeks' High & Low Weather Summary

 TemperatureHumidityPressure
High88 °F (Jul 16, 2:00 PM)94% (Jul 20, 6:00 AM)30.28 "Hg (Jul 20, 6:00 AM)
Low48 °F (Jul 11, 5:00 AM)26% (Jul 24, 5:00 PM)29.55 "Hg (Jul 19, 7:00 PM)
Average65 °F61%29.97 "Hg
* Reported Jul 9 11:00 PM — Jul 24 11:00 PM, Calgary, Weather by CustomWeather, © 2014

Note: Actual official high and low records may vary slightly from our data, if they occured in-between our weather recording intervals... More about our weather records

Advertising

Calgary weather history for previous 24 hours

 ConditionsComfort  
Time TempWeatherWind HumidityBarometerVisibility
11:00 PM
Jul 24
55 °FPassing clouds.21 mph44%29.72 "Hg15 mi
10:00 PM57 °FBroken clouds.22 mph41%29.72 "Hg20 mi
9:00 PM59 °FBroken clouds.24 mph39%29.72 "Hg30 mi
8:00 PM61 °FPartly sunny.25 mph34%29.72 "Hg30 mi
7:00 PM61 °FBroken clouds.20 mph36%29.72 "Hg40 mi
6:00 PM64 °FScattered clouds.26 mph30%29.72 "Hg40 mi
5:00 PM66 °FPassing clouds.31 mph26%29.70 "Hg40 mi
4:00 PM66 °FPassing clouds.23 mph30%29.72 "Hg40 mi
3:00 PM66 °FScattered clouds.21 mph32%29.73 "Hg40 mi
2:00 PM66 °FScattered clouds.32 mph32%29.72 "Hg40 mi
1:00 PM68 °FScattered clouds.28 mph30%29.70 "Hg40 mi
12:00 PM70 °FPassing clouds.17 mph27%29.69 "Hg40 mi
11:00 AM66 °FPassing clouds.20 mph35%29.70 "Hg40 mi
10:00 AM66 °FPassing clouds.22 mph35%29.70 "Hg40 mi
9:00 AM63 °FPassing clouds.21 mph45%29.72 "Hg40 mi
8:00 AM61 °FPassing clouds.21 mph48%29.74 "Hg40 mi
7:00 AM55 °FPassing clouds.10 mph82%29.76 "Hg30 mi
6:00 AM55 °FPassing clouds.7 mph82%29.77 "Hg20 mi
5:00 AM54 °FPassing clouds.10 mph88%29.79 "Hg15 mi
4:00 AM55 °FPassing clouds.8 mph88%29.79 "Hg15 mi
3:00 AM55 °FClear.12 mph94%29.78 "Hg15 mi
2:00 AM57 °FPassing clouds.6 mph88%29.79 "Hg15 mi
1:00 AM59 °FPartly cloudy.6 mph82%29.83 "Hg15 mi
Weather by CustomWeather, © 2014

See weather overviewHow to use our weather pages